When you browse on this site, cookies collect data to enhance your experience and personalize the content and advertising you see.
Visit our Privacy Policy to learn more. By continuing to use the site, you agree to this use of cookies and data.
  • In Deutschland
  • Länderverzeichnis
  • Für 7 Tage
  • Wassertemperatur
  • Wetterkarte
  • Widgets
  • user-avatar
    Anmelden

    Stündliche Wetter Dunaujvaros

    Heute, 25 Februar, Dienstag

    Zeit Temperatur Niederschläge Wind Luftdruck Luftfeuchtigkeit
    00:00 +4°C° 0 mm 3 m/S 751 mmHg 62%
    01:00 +4°C° 0 mm 4 m/S 750 mmHg 61%
    02:00 +4°C° 0 mm 4 m/S 749 mmHg 62%
    03:00 +4°C° 0 mm 4 m/S 748 mmHg 64%
    04:00 +3°C° 0 mm 4 m/S 748 mmHg 65%
    05:00 +3°C° 0 mm 4 m/S 747 mmHg 67%
    06:00 +3°C° 0 mm 4 m/S 747 mmHg 69%
    07:00 +3°C° 0 mm 4 m/S 747 mmHg 71%
    08:00 +5°C° 0 mm 4 m/S 747 mmHg 68%
    09:00 +7°C° 0 mm 5 m/S 746 mmHg 64%
    10:00 +9°C° 0 mm 5 m/S 746 mmHg 60%
    11:00 +11°C° 0 mm 6 m/S 745 mmHg 58%
    12:00 +14°C° 0 mm 6 m/S 745 mmHg 55%
    13:00 +15°C° 0 mm 7 m/S 744 mmHg 53%
    14:00 +15°C° 0 mm 6 m/S 743 mmHg 57%
    15:00 +14°C° 0 mm 5 m/S 743 mmHg 61%
    16:00 +13°C° 0 mm 5 m/S 742 mmHg 65%
    17:00 +12°C° 0 mm 5 m/S 742 mmHg 68%
    18:00 +11°C° 0 mm 4 m/S 742 mmHg 71%
    19:00 +10°C° 0 mm 4 m/S 741 mmHg 74%
    20:00 +10°C° 0 mm 4 m/S 741 mmHg 76%
    21:00 +8°C° 0 mm 4 m/S 741 mmHg 78%
    22:00 +8°C° 0 mm 4 m/S 740 mmHg 79%
    23:00 +8°C° 0 mm 4 m/S 740 mmHg 78%

    Morgen, 26 Februar, Mittwoch

    Zeit Temperatur Niederschläge Wind Luftdruck Luftfeuchtigkeit
    00:00 +9°C° 0 mm 5 m/S 739 mmHg 78%
    01:00 +9°C° 0 mm 5 m/S 739 mmHg 77%
    02:00 +8°C° 0.6 mm 5 m/S 738 mmHg 81%
    03:00 +8°C° 0.6 mm 4 m/S 738 mmHg 85%
    04:00 +8°C° 0.6 mm 4 m/S 737 mmHg 89%
    05:00 +7°C° 2.6 mm 4 m/S 737 mmHg 89%
    06:00 +6°C° 2.6 mm 5 m/S 736 mmHg 89%
    07:00 +5°C° 2.6 mm 5 m/S 736 mmHg 88%
    08:00 +5°C° 1 mm 5 m/S 736 mmHg 82%
    09:00 +6°C° 1 mm 4 m/S 736 mmHg 76%
    10:00 +8°C° 1 mm 3 m/S 736 mmHg 70%
    11:00 +7°C° 0.1 mm 4 m/S 736 mmHg 67%
    12:00 +8°C° 0.1 mm 5 m/S 736 mmHg 65%
    13:00 +8°C° 0.1 mm 5 m/S 736 mmHg 63%
    14:00 +8°C° 0.2 mm 6 m/S 736 mmHg 62%
    15:00 +7°C° 0.2 mm 6 m/S 736 mmHg 62%
    16:00 +7°C° 0.2 mm 6 m/S 736 mmHg 62%
    17:00 +6°C° 0 mm 5 m/S 736 mmHg 61%
    18:00 +5°C° 0 mm 5 m/S 736 mmHg 60%
    19:00 +5°C° 0 mm 4 m/S 737 mmHg 59%
    20:00 +4°C° 0 mm 4 m/S 737 mmHg 60%
    21:00 +4°C° 0 mm 3 m/S 738 mmHg 61%
    22:00 +3°C° 0 mm 3 m/S 738 mmHg 62%
    23:00 +3°C° 0 mm 4 m/S 739 mmHg 62%

    übermorgen, 27 Februar, Donnerstag

    Zeit Temperatur Niederschläge Wind Luftdruck Luftfeuchtigkeit
    00:00 +2°C° 0 mm 6 m/S 739 mmHg 63%
    01:00 0°C° 0 mm 7 m/S 739 mmHg 64%
    02:00 +1°C° 0 mm 6 m/S 740 mmHg 67%
    03:00 +1°C° 0 mm 6 m/S 740 mmHg 70%
    04:00 0°C° 0 mm 5 m/S 740 mmHg 73%
    05:00 0°C° 0 mm 5 m/S 741 mmHg 72%
    06:00 0°C° 0 mm 5 m/S 742 mmHg 72%
    07:00 0°C° 0 mm 5 m/S 743 mmHg 71%
    08:00 0°C° 0 mm 7 m/S 743 mmHg 67%
    09:00 +2°C° 0 mm 8 m/S 744 mmHg 62%
    10:00 +3°C° 0 mm 9 m/S 745 mmHg 58%
    11:00 +4°C° 0 mm 8 m/S 745 mmHg 55%
    12:00 +5°C° 0 mm 8 m/S 745 mmHg 52%
    13:00 +5°C° 0 mm 7 m/S 745 mmHg 50%
    14:00 +5°C° 0 mm 6 m/S 744 mmHg 49%
    15:00 +5°C° 0 mm 6 m/S 744 mmHg 47%
    16:00 +6°C° 0 mm 5 m/S 744 mmHg 46%
    17:00 +5°C° 0 mm 4 m/S 743 mmHg 51%
    18:00 +4°C° 0 mm 4 m/S 743 mmHg 56%
    19:00 +3°C° 0 mm 4 m/S 742 mmHg 62%
    20:00 +3°C° 0 mm 5 m/S 742 mmHg 59%
    21:00 +3°C° 0 mm 7 m/S 741 mmHg 57%
    22:00 +2°C° 0 mm 8 m/S 740 mmHg 54%
    23:00 +2°C° 0.1 mm 9 m/S 740 mmHg 57%

    28 Februar, Freitag

    Zeit Temperatur Niederschläge Wind Luftdruck Luftfeuchtigkeit
    00:00 +2°C° 0.1 mm 9 m/S 739 mmHg 61%
    01:00 +2°C° 0.1 mm 10 m/S 739 mmHg 64%
    02:00 +2°C° 0 mm 9 m/S 739 mmHg 67%
    03:00 +3°C° 0 mm 9 m/S 738 mmHg 70%
    04:00 +3°C° 0 mm 9 m/S 738 mmHg 73%
    05:00 +3°C° 0.1 mm 9 m/S 739 mmHg 67%
    06:00 +2°C° 0.1 mm 9 m/S 739 mmHg 62%
    07:00 +2°C° 0.1 mm 8 m/S 739 mmHg 56%
    08:00 +2°C° 0 mm 10 m/S 740 mmHg 54%
    09:00 +3°C° 0 mm 12 m/S 741 mmHg 51%
    10:00 +3°C° 0 mm 13 m/S 742 mmHg 48%
    11:00 +4°C° 0 mm 13 m/S 743 mmHg 47%
    12:00 +4°C° 0 mm 13 m/S 744 mmHg 46%
    13:00 +5°C° 0 mm 13 m/S 745 mmHg 45%
    14:00 +5°C° 0 mm 12 m/S 746 mmHg 45%
    15:00 +4°C° 0 mm 11 m/S 747 mmHg 45%
    16:00 +5°C° 0 mm 10 m/S 748 mmHg 45%
    17:00 +4°C° 0 mm 8 m/S 748 mmHg 48%
    18:00 +3°C° 0 mm 7 m/S 749 mmHg 51%
    19:00 +2°C° 0 mm 5 m/S 750 mmHg 54%
    20:00 +3°C° 0 mm 4 m/S 751 mmHg 57%
    21:00 +1°C° 0 mm 4 m/S 751 mmHg 61%
    22:00 +1°C° 0 mm 4 m/S 752 mmHg 65%
    23:00 0°C° 0 mm 4 m/S 752 mmHg 67%

    29 Februar, Samstag

    Zeit Temperatur Niederschläge Wind Luftdruck Luftfeuchtigkeit
    00:00 +1°C° 0 mm 3 m/S 752 mmHg 69%
    01:00 +1°C° 0 mm 3 m/S 752 mmHg 72%
    02:00 0°C° 0 mm 3 m/S 752 mmHg 73%
    03:00 0°C° 0 mm 3 m/S 751 mmHg 75%
    04:00 0°C° 0 mm 3 m/S 751 mmHg 76%
    05:00 +1°C° 0 mm 2 m/S 751 mmHg 77%
    06:00 +1°C° 0 mm 2 m/S 751 mmHg 77%
    07:00 +1°C° 0 mm 2 m/S 751 mmHg 77%
    08:00 +2°C° 0 mm 2 m/S 751 mmHg 69%
    09:00 +3°C° 0 mm 3 m/S 751 mmHg 61%
    10:00 +5°C° 0 mm 3 m/S 751 mmHg 53%
    11:00 +6°C° 0 mm 4 m/S 750 mmHg 48%
    12:00 +7°C° 0 mm 5 m/S 749 mmHg 43%
    13:00 +8°C° 0 mm 6 m/S 749 mmHg 39%
    14:00 +8°C° 0 mm 6 m/S 748 mmHg 39%
    15:00 +8°C° 0 mm 6 m/S 747 mmHg 39%
    16:00 +8°C° 0 mm 5 m/S 747 mmHg 39%
    17:00 +8°C° 0 mm 5 m/S 747 mmHg 42%
    18:00 +7°C° 0 mm 5 m/S 746 mmHg 46%
    19:00 +6°C° 0 mm 5 m/S 746 mmHg 49%
    20:00 +5°C° 0 mm 6 m/S 746 mmHg 49%
    21:00 +5°C° 0 mm 6 m/S 745 mmHg 49%
    22:00 +5°C° 0 mm 7 m/S 745 mmHg 50%
    23:00 +5°C° 0 mm 6 m/S 745 mmHg 53%

    1 März, Sonntag

    Zeit Temperatur Niederschläge Wind Luftdruck Luftfeuchtigkeit
    00:00 +5°C° 0 mm 6 m/S 745 mmHg 56%
    01:00 +5°C° 0 mm 6 m/S 744 mmHg 59%
    02:00 +5°C° 0.3 mm 6 m/S 744 mmHg 66%
    03:00 +6°C° 0.3 mm 5 m/S 744 mmHg 73%
    04:00 +5°C° 0.3 mm 5 m/S 744 mmHg 80%
    05:00 +5°C° 0.1 mm 5 m/S 744 mmHg 81%
    06:00 +5°C° 0.1 mm 4 m/S 745 mmHg 82%
    07:00 +4°C° 0.1 mm 4 m/S 745 mmHg 83%
    08:00 +5°C° 0 mm 4 m/S 745 mmHg 76%
    09:00 +7°C° 0 mm 4 m/S 746 mmHg 69%
    10:00 +8°C° 0 mm 5 m/S 746 mmHg 62%
    11:00 +8°C° 0 mm 4 m/S 746 mmHg 60%
    12:00 +10°C° 0 mm 4 m/S 745 mmHg 57%
    13:00 +10°C° 0 mm 4 m/S 745 mmHg 55%
    14:00 +10°C° 0 mm 4 m/S 745 mmHg 56%
    15:00 +8°C° 0 mm 4 m/S 745 mmHg 56%
    16:00 +8°C° 0 mm 4 m/S 745 mmHg 56%
    17:00 +8°C° 0.2 mm 3 m/S 744 mmHg 62%
    18:00 +8°C° 0.2 mm 3 m/S 744 mmHg 68%
    19:00 +7°C° 0.2 mm 3 m/S 744 mmHg 73%
    20:00 +6°C° 0 mm 2 m/S 744 mmHg 75%
    21:00 +6°C° 0 mm 2 m/S 744 mmHg 76%
    22:00 +7°C° 0 mm 1 m/S 744 mmHg 78%
    23:00 +7°C° 0 mm 1 m/S 744 mmHg 79%
    Mehr zeigen